Погода в Юргамыше

Россия / Курганская область     55°22′44″N   64°27′45″E
темп.,
°C
ветер,
м/с
пор.,
м/с
влажн.,
%
обл.,
%
осадки,
мм/ч
давл.,
гПа
погр.,
м
14 июня, пн
пн1423:00+17юв22565 0.0 102314
02:00+16ююв22545 0.0 102319
05:00+15ююв33605 0.0 102446
08:00+21ююз354599 0.0 1024280
11:00+26юз453358 0.0 10231034
14:00+28юз442622 0.0 10222494
17:00+28юз342722 0.0 10212377
20:00+23юз22536 0.0 102022
15 июня, вт
вт1523:00+19ююз33548 0.0 102036
02:00+17ююз3457100 0.0 101966
05:00+17юз376097 0.0 1019108
08:00+23юз484883 0.0 1019322
11:00+28зюз5733100 0.0 10181073
14:00+30зюз67296 0.0 10162189
17:00+29зюз4632100 0.0 10151654
20:00+24юз385949 0.0 1014182
16 июня, ср
ср1623:00+18ссв2378100 0.0 101559
02:00+17з228061 0.0 101515
05:00+17зюз227881 0.0 101539
08:00+23з245563 0.0 1015349
11:00+28зсз354228 0.0 10141230
14:00+30з5103529 0.0 10132336
17:00+28сз56425 0.0 10121144
20:00+25ссз22625 0.0 101227
17 июня, чт
чт1723:00+20ю116465 0.0 101114
02:00+16ююз11816 0.3 101014
05:00+17юз378480 0.3 1010130
08:00+23юз35565 0.0 1008382
11:00+28юз464059 0.0 1006961
14:00+31юз31131100 0.0 10043241
17:00+31ююз4112911 0.0 10013082
20:00+19ююв4118197 0.9 1001306
18 июня, пт
пт1823:00+16ссз61393100 1.9 1002584
02:00+10ссз81492100 0.0 1005605
05:00+9ссз81573100 0.0 1008801
08:00+11ссз8126017 0.0 10091072
11:00+14ссз8124823 0.0 10101471
14:00+16с8124287 0.0 10112014
17:00+17ссз7113060 0.0 10122649
20:00+15ссз49425 0.0 10111048